This demonstration page uses our WeatherBlox Daily Observations layout. Learn more.

Left ArrowRight Arrow

38.20091, -84.87328

Hourly Observations for August 1, 2022

Temp ( °F °C ) Dew Point ( °F °C ) Humidity (%) Winds ( mph kmh ) Pressure ( in mb ) Visibility ( mi km ) Precip ( " mm )
12:34 am 00:34 Cloudy 74 23.3 70 21.1 88 88 S 5 7 30.04 1017 10 16 0.00 0.00
12:53 am 00:53 Cloudy 73 22.8 70 21.1 90 90 SSW 3 6 30.04 1017 10 16 0.00 0.00
1:53 am 01:53 Cloudy 73 22.8 71 21.7 94 94 SSW 5 7 30.03 1017 10 16 0.00 0.00
2:10 am 02:10 Cloudy 73 22.8 71 21.7 94 94 SSW 5 7 30.02 1017 10 16 0.00 0.00
2:53 am 02:53 Cloudy 73 22.8 71 21.7 94 94 SSW 6 9 30.02 1017 10 16 0.00 0.00
3:02 am 03:02 Cloudy 73 22.8 71 21.7 94 94 SSW 6 9 30.01 1016 10 16 0.00 0.00
3:09 am 03:09 Cloudy 73 22.8 71 21.7 94 94 SW 5 7 30.01 1016 10 16 0.00 0.00
3:39 am 03:39 Cloudy 73 22.8 71 21.7 94 94 SSW 3 6 30.01 1016 10 16 0.00 0.00
3:53 am 03:53 Cloudy 73 22.8 71 21.7 94 94 SSW 5 7 30.01 1016 10 16 0.00 0.00
4:35 am 04:35 Cloudy 73 22.8 71 21.7 94 94 SW 7 11 30.00 1016 10 16 0.00 0.00
4:53 am 04:53 Cloudy 73 22.8 72 22.2 96 96 SW 7 11 30.01 1016 10 16 0.00 0.00
5:53 am 05:53 Cloudy with Light Rain 74 23.3 72 22.2 94 94 WSW 5 7 30.01 1016 6 10 0.05 1.27
6:00 am 06:00 Cloudy with Rain 74 23.3 72 22.2 94 94 WSW 7 11 30.00 1016 3 5 0.03 0.76
6:07 am 06:07 Cloudy with Rain 74 23.3 72 22.2 94 94 SW 8 13 30.00 1016 3 4 0.06 1.52
6:17 am 06:17 Cloudy with Light Rain 74 23.3 72 22.2 94 94 SW 7 11 30.00 1016 3 5 0.10 2.54
6:33 am 06:33 Cloudy 74 23.3 72 22.2 94 94 WSW 8 13 30.01 1016 10 16 0.11 2.79
6:42 am 06:42 Cloudy with Heavy Rain 74 23.3 72 22.2 94 94 WSW 6 9 30.00 1016 2 3 0.17 4.32
6:48 am 06:48 Cloudy with Light Rain 73 23 72 22 94 94 WSW 5 7 30.01 1016 3 5 0.17 4.32
6:53 am 06:53 Cloudy with Light Rain 74 23.3 72 22.2 94 94 WSW 7 11 30.01 1016 9 14 0.17 4.32
7:08 am 07:08 Cloudy 74 23.3 72 22.2 94 94 W 3 6 30.01 1016 10 16 0.00 0.00
7:18 am 07:18 Cloudy 74 23.3 72 22.2 94 94 WSW 5 7 30.01 1016 10 16 0.00 0.00
7:28 am 07:28 Cloudy 74 23.3 72 22.2 94 94 WSW 5 7 30.01 1016 9 14 0.00 0.00
7:53 am 07:53 Cloudy 74 23.3 72 22.2 94 94 SW 6 9 30.02 1017 9 14 0.00 0.00
8:22 am 08:22 Cloudy 75 23.9 72 22.2 90 90 WSW 8 13 30.02 1017 10 16 0.00 0.00
8:53 am 08:53 Cloudy 75 23.9 72 22.2 90 90 SW 7 11 30.03 1017 9 14 0.00 0.00
9:03 am 09:03 Cloudy 75 23.9 73 22.8 94 94 SW 10 17 30.02 1017 10 16 0.00 0.00
9:20 am 09:20 Cloudy 76 24.4 73 22.8 91 91 WSW 7 11 30.02 1017 10 16 0.00 0.00
9:53 am 09:53 Cloudy 76 24.4 72 22.2 88 88 WSW 6 9 30.03 1017 10 16 0.00 0.00
10:45 am 10:45 Mostly Cloudy 80 26.7 74 23.3 82 82 WSW 12 19 30.03 1017 10 16 0.00 0.00
10:53 am 10:53 Mostly Cloudy 79 26.1 72 22.2 79 79 WSW 13 20 30.04 1017 10 16 0.00 0.00
11:06 am 11:06 Mostly Cloudy 79 26.1 73 22.8 82 82 WSW 13 20 30.04 1017 10 16 0.00 0.00
11:39 am 11:39 Cloudy 79 26.1 71 21.7 77 77 W 12 19 30.04 1017 10 16 0.00 0.00
11:53 am 11:53 Cloudy 80 26.7 72 22.2 76 76 SW 12 19 30.03 1017 10 16 0.00 0.00
12:53 pm 12:53 Partly Cloudy 83 28.3 73 22.8 72 72 SSW 16 26 29.99 1016 10 16 0.00 0.00
1:11 pm 13:11 Mostly Cloudy 84 28.9 74 23.3 72 72 SSW 14 22 29.98 1015 10 16 0.00 0.00
1:19 pm 13:19 Partly Cloudy 83 28.3 73 22.8 72 72 SW 14 22 29.97 1015 10 16 0.00 0.00
1:53 pm 13:53 Partly Cloudy 84 28.9 73 22.8 70 70 SW 16 26 29.99 1016 10 16 0.00 0.00
2:04 pm 14:04 Mostly Cloudy 84 28.9 73 22.8 70 70 WSW 15 24 29.97 1015 10 16 0.00 0.00
2:15 pm 14:15 Mostly Cloudy 84 28.9 73 22.8 70 70 SW 16 26 29.97 1015 10 16 0.00 0.00
2:27 pm 14:27 Mostly Cloudy 84 28.9 73 22.8 70 70 SSW 16 26 29.97 1015 10 16 0.00 0.00
2:34 pm 14:34 Mostly Cloudy 85 29.4 73 22.8 68 68 SW 16 26 29.97 1015 10 16 0.00 0.00
2:53 pm 14:53 Mostly Cloudy 85 29.4 73 22.8 68 68 WSW 13 20 29.98 1015 10 16 0.00 0.00
3:51 pm 15:51 Mostly Cloudy 86 30 73 23 66 66 SW 14 22 29.95 1014 10 16 0.00 0.00
3:53 pm 15:53 Mostly Cloudy 86 30 73 22.8 65 65 SW 15 24 29.97 1015 10 16 0.00 0.00
4:00 pm 16:00 Partly Cloudy 85 29.4 72 22.2 65 65 SW 16 26 29.96 1014 10 16 0.00 0.00
4:53 pm 16:53 Mostly Cloudy 84 28.9 73 22.8 70 70 SW 14 22 29.96 1014 10 16 0.00 0.00
5:53 pm 17:53 Partly Cloudy 85 29.4 73 22.8 68 68 SW 15 24 29.93 1014 10 16 0.00 0.00
6:53 pm 18:53 Sunny 85 29.4 73 22.8 68 68 SW 12 19 29.92 1013 10 16 0.00 0.00
7:53 pm 19:53 Sunny 83 28.3 74 23.3 74 74 SW 12 19 29.93 1013 10 16 0.00 0.00
8:53 pm 20:53 Mostly Clear 80 26.7 73 22.8 79 79 SW 5 7 29.92 1013 10 16 0.00 0.00
9:53 pm 21:53 Partly Cloudy 80 26.7 74 23.3 82 82 SSW 7 11 29.93 1014 10 16 0.00 0.00
10:17 pm 22:17 Mostly Cloudy with Nearby Thunderstorms 81 27.2 74 23.3 79 79 SW 8 13 29.93 1014 10 16 0.00 0.00
10:32 pm 22:32 Partly Cloudy 80 26.7 74 23.3 82 82 SSW 10 17 29.93 1014 10 16 0.00 0.00
10:53 pm 22:53 Partly Cloudy 80 26.7 74 23.3 82 82 SSW 9 15 29.94 1014 10 16 0.00 0.00
11:53 pm 23:53 Clear 79 26.1 74 23.3 85 85 SW 9 15 29.93 1013 10 16 0.00 0.00

Powered by AerisWeather